Glasgow, United Kingdom

4:40 PM BST on May 21, 2018 (GMT +0100)
Glasgow

Weather History for EGPF - July, 2013

Change the Weather History Date:

Monday, July 8, 2013

  Actual Average Record
Temperature  
Mean Temperature 66 °F -  
Max Temperature 78 °F 65 °F 78 °F (2013)
Min Temperature 53 °F 49 °F 41 °F (1996)
Growing Degree Days 16 (Base 50)    
Moisture  
Dew Point 57 °F    
Average Humidity 77    
Maximum Humidity 94    
Minimum Humidity 51    
Precipitation  
Precipitation 0.00 in - - ()
Sea Level Pressure  
Sea Level Pressure 30.57 in    
Wind  
Wind Speed 4 mph ()    
Max Wind Speed 9 mph    
Max Gust Speed -    
Visibility 4.5 miles    
Events      
Averages and records for this station are not official NWS values.
T = Trace of Precipitation, MM = Missing Value Source: Averaged Metar Reports

Daily Weather History Graph

Daily Weather History Graph

Search for Another Location

Airport or City:

Astronomy

Jul. 08, 2013 Rise Set
Actual Time 4:44 AM BST 10:00 PM BST
Civil Twilight 3:45 AM BST 10:58 PM BST
Nautical Twilight 1:55 AM BST 12:50 AM BST
Astronomical Twilight Sun does not set Sun does not set
Moon 5:19 AM BST (7/8) 9:30 PM BST (7/8)
Length of Visible Light 19h 12m
Length of Day
17h 16m
New Moon, 0% of the Moon is Illuminated
Jul 8
New Moon
Jul 16
First Quarter
Jul 22
Full
Jul 29
Last Quarter
Aug 6
New

Hourly Weather History & Observations

Time (BST) Temp. Dew Point Humidity Pressure Visibility Wind Dir Wind Speed Gust Speed Precip Events Conditions
12:20 AM 55.4 °F 53.6 °F 94% 30.60 in - Calm Calm - N/A   Clear
12:50 AM 55.4 °F 51.8 °F 88% 30.60 in - WNW 2.3 mph - N/A   Clear
1:20 AM 55.4 °F 53.6 °F 94% 30.60 in - NE 5.8 mph - N/A   Clear
1:50 AM 57.2 °F 53.6 °F 88% 30.60 in - East 5.8 mph - N/A   Clear
2:20 AM 57.2 °F 53.6 °F 88% 30.63 in - East 6.9 mph - N/A   Clear
2:50 AM 55.4 °F 53.6 °F 94% 30.63 in 6.2 mi NE 5.8 mph - N/A   Unknown
3:20 AM 55.4 °F 53.6 °F 94% 30.63 in 6.2 mi ENE 5.8 mph - N/A   Unknown
3:50 AM 53.6 °F 51.8 °F 94% 30.63 in 3.7 mi NE 5.8 mph - N/A   Scattered Clouds
4:20 AM 55.4 °F 53.6 °F 94% 30.63 in 3.1 mi East 9.2 mph - N/A   Haze
4:50 AM 55.4 °F 53.6 °F 94% 30.63 in 3.1 mi ENE 8.1 mph - N/A   Haze
5:20 AM 55.4 °F 53.6 °F 94% 30.63 in 3.1 mi ENE 5.8 mph - N/A   Haze
5:50 AM 55.4 °F 53.6 °F 94% 30.63 in 3.1 mi East 3.5 mph - N/A   Haze
6:20 AM 55.4 °F 53.6 °F 94% 30.63 in - East 4.6 mph - N/A   Haze
6:50 AM 55.4 °F 53.6 °F 94% 30.63 in 3.1 mi NE 5.8 mph - N/A   Haze
7:20 AM 57.2 °F 53.6 °F 88% 30.63 in 3.1 mi ENE 5.8 mph - N/A   Haze
7:50 AM 57.2 °F 55.4 °F 94% 30.63 in 3.1 mi Variable 3.5 mph - N/A   Haze
8:20 AM 57.2 °F 55.4 °F 94% 30.63 in 3.1 mi East 4.6 mph - N/A   Haze
8:50 AM 57.2 °F 55.4 °F 94% 30.63 in 3.1 mi ENE 6.9 mph - N/A   Haze
9:20 AM 59.0 °F 55.4 °F 88% 30.63 in 3.7 mi ESE 5.8 mph - N/A   Mostly Cloudy
9:50 AM 59.0 °F 55.4 °F 88% 30.63 in 3.7 mi NE 5.8 mph - N/A   Mostly Cloudy
10:20 AM 60.8 °F 57.2 °F 88% 30.63 in 4.3 mi North 4.6 mph - N/A   Mostly Cloudy
10:50 AM 62.6 °F 57.2 °F 82% 30.63 in 4.3 mi North 4.6 mph - N/A   Mostly Cloudy
11:20 AM 64.4 °F 57.2 °F 77% 30.60 in 5.6 mi Variable 3.5 mph - N/A   Partly Cloudy
11:50 AM 68.0 °F 59.0 °F 73% 30.60 in - Variable 2.3 mph - N/A   Clear
12:20 PM 69.8 °F 59.0 °F 68% 30.60 in - Variable 2.3 mph - N/A   Clear
12:50 PM 69.8 °F 60.8 °F 73% 30.57 in - WNW 5.8 mph - N/A   Clear
1:20 PM 71.6 °F 59.0 °F 64% 30.57 in 6.2 mi Variable 3.5 mph - N/A   Partly Cloudy
1:50 PM 73.4 °F 55.4 °F 53% 30.57 in 6.2 mi West 4.6 mph - N/A   Partly Cloudy
2:20 PM 75.2 °F 59.0 °F 57% 30.57 in - WNW 4.6 mph - N/A   Clear
2:50 PM 77.0 °F 59.0 °F 54% 30.54 in - Variable 4.6 mph - N/A   Clear
3:20 PM 77.0 °F 60.8 °F 57% 30.54 in 6.2 mi WNW 4.6 mph - N/A   Unknown
3:50 PM 78.8 °F 60.8 °F 54% 30.54 in 6.2 mi WNW 5.8 mph - N/A   Partly Cloudy
4:20 PM 78.8 °F 60.8 °F 54% 30.54 in 6.2 mi NW 4.6 mph - N/A   Partly Cloudy
4:50 PM 78.8 °F 59.0 °F 51% 30.51 in 6.2 mi WSW 4.6 mph - N/A   Partly Cloudy
5:20 PM 78.8 °F 60.8 °F 54% 30.51 in - WNW 5.8 mph - N/A   Clear
5:50 PM 78.8 °F 60.8 °F 54% 30.51 in - WNW 4.6 mph - N/A   Clear
6:20 PM 78.8 °F 60.8 °F 54% 30.51 in - NNW 4.6 mph - N/A   Clear
6:50 PM 78.8 °F 60.8 °F 54% 30.51 in - NW 4.6 mph - N/A   Clear
7:20 PM 77.0 °F 60.8 °F 57% 30.48 in - NW 5.8 mph - N/A   Clear
7:50 PM 77.0 °F 62.6 °F 61% 30.48 in - NW 6.9 mph - N/A   Clear
8:20 PM 77.0 °F 62.6 °F 61% 30.48 in - WNW 5.8 mph - N/A   Clear
8:50 PM 73.4 °F 62.6 °F 69% 30.48 in - West 5.8 mph - N/A   Clear
9:20 PM 69.8 °F 62.6 °F 78% 30.48 in - WSW 6.9 mph - N/A   Clear
9:50 PM 68.0 °F 60.8 °F 78% 30.48 in - WSW 4.6 mph - N/A   Clear
10:20 PM 64.4 °F 59.0 °F 83% 30.48 in - WSW 3.5 mph - N/A   Clear
10:50 PM 62.6 °F 59.0 °F 88% 30.48 in - West 3.5 mph - N/A   Clear
11:20 PM 62.6 °F 57.2 °F 82% 30.48 in - West 4.6 mph - N/A   Clear
11:50 PM 62.6 °F 59.0 °F 88% 30.48 in - West 5.8 mph - N/A   Clear